Weather History for KHOB - November, 2013

Change the Weather History Date:

Friday, November 29, 2013

  Actual Average Record
Temperature  
Mean Temperature 42 °F -  
Max Temperature 59 °F 58 °F 75 °F (2014)
Min Temperature 26 °F 33 °F 19 °F (1955)
Degree Days  
Heating Degree Days 22    
Moisture  
Dew Point 32 °F    
Average Humidity 74    
Maximum Humidity 100    
Minimum Humidity 36    
Precipitation  
Precipitation 0.00 in - - ()
Sea Level Pressure  
Sea Level Pressure 30.29 in    
Wind  
Wind Speed 3 mph (SSE)    
Max Wind Speed 12 mph    
Max Gust Speed -    
Visibility 10 miles    
Events      
Averages and records for this station are not official NWS values.
T = Trace of Precipitation, MM = Missing Value Source: NWS Daily Summary

Daily Weather History Graph

Daily Weather History Graph

Search for Another Location

Airport or City:

Trip Planner

Search our weather history database for the weather conditions in past years. The results will help you decide how hot, cold, wet, or windy it might be!

Date:

Astronomy

Nov. 29, 2013 Rise Set
Actual Time 6:35 AM MST 4:46 PM MST
Civil Twilight 6:08 AM MST 5:13 PM MST
Nautical Twilight 5:38 AM MST 5:44 PM MST
Astronomical Twilight 5:08 AM MST 6:13 PM MST
Moon 2:54 AM MST (11/29) 2:23 PM MST (11/29)
Length of Visible Light 11h 04m
Length of Day
10h 11m
Waning Crescent, 13% of the Moon is Illuminated
Nov 29
Waning Crescent
Dec 2
New
Dec 9
First Quarter
Dec 17
Full
Dec 25
Last Quarter

Hourly Weather History & Observations

Time (MST) Temp. Windchill Dew Point Humidity Pressure Visibility Wind Dir Wind Speed Gust Speed Precip Events Conditions
12:15 AM 33.8 °F 30.8 °F 32.0 °F 93% 30.31 in 10.0 mi SSW 3.5 mph - N/A   Unknown
12:35 AM 32.0 °F - 28.4 °F 87% 30.30 in 10.0 mi Calm Calm - N/A   Unknown
12:55 AM 32.0 °F 25.6 °F 30.2 °F 93% 30.30 in 10.0 mi South 6.9 mph - N/A   Unknown
1:15 AM 32.0 °F - 30.2 °F 93% 30.30 in 10.0 mi Calm Calm - N/A   Unknown
1:35 AM 32.0 °F - 30.2 °F 93% 30.31 in 10.0 mi Calm Calm - N/A   Unknown
1:55 AM 32.0 °F - 30.2 °F 93% 30.30 in 10.0 mi Calm Calm - N/A   Unknown
2:15 AM 32.0 °F - 28.4 °F 87% 30.31 in 10.0 mi Calm Calm - N/A   Unknown
2:35 AM 30.2 °F - 28.4 °F 93% 30.32 in 10.0 mi Calm Calm - N/A   Unknown
2:55 AM 30.2 °F - 28.4 °F 93% 30.32 in 10.0 mi Calm Calm - N/A   Unknown
3:15 AM 30.2 °F - 28.4 °F 93% 30.31 in 10.0 mi Calm Calm - N/A   Unknown
3:35 AM 28.4 °F - 26.6 °F 93% 30.31 in 10.0 mi Calm Calm - N/A   Unknown
3:55 AM 28.4 °F - 26.6 °F 93% 30.31 in 10.0 mi Calm Calm - N/A   Unknown
5:50 AM 26.6 °F - 26.6 °F 100% 30.32 in 10.0 mi Calm Calm - N/A   Clear
6:50 AM 26.6 °F - 26.6 °F 100% 30.33 in 10.0 mi Calm Calm - N/A   Clear
7:50 AM 35.6 °F - 32.0 °F 87% 30.35 in 8.0 mi Calm Calm - N/A   Clear
8:50 AM 39.2 °F 34.2 °F 32.0 °F 75% 30.36 in 10.0 mi ESE 6.9 mph - N/A   Clear
9:50 AM 44.6 °F 42.2 °F 33.8 °F 66% 30.36 in 10.0 mi ESE 4.6 mph - N/A   Clear
10:50 AM 50.0 °F - 33.8 °F 54% 30.34 in 10.0 mi SE 6.9 mph - N/A   Clear
11:50 AM 53.6 °F - 33.8 °F 47% 30.32 in 10.0 mi South 6.9 mph - N/A   Clear
12:50 PM 57.2 °F - 33.8 °F 41% 30.28 in 10.0 mi SSE 6.9 mph - N/A   Clear
1:50 PM 59.0 °F - 32.0 °F 36% 30.26 in 10.0 mi South 8.1 mph - N/A   Clear
2:50 PM 59.0 °F - 32.0 °F 36% 30.25 in 10.0 mi SSE 8.1 mph - N/A   Clear
3:50 PM 57.2 °F - 32.0 °F 38% 30.25 in 10.0 mi SE 11.5 mph - N/A   Clear
4:50 PM 50.0 °F - 33.8 °F 54% 30.24 in 10.0 mi SE 5.8 mph - N/A   Clear
5:15 PM 48.2 °F - 32.0 °F 54% 30.25 in 10.0 mi Calm Calm - N/A   Unknown
5:35 PM 48.2 °F - 32.0 °F 54% 30.25 in 10.0 mi Calm Calm - N/A   Unknown
5:45 PM 48.2 °F - 32.0 °F 54% 30.25 in 10.0 mi Calm Calm - N/A   Clear
5:55 PM 46.4 °F - 32.0 °F 57% 30.26 in 10.0 mi Calm Calm - N/A   Unknown
6:15 PM 46.4 °F - 32.0 °F 57% 30.26 in 10.0 mi Calm Calm - N/A   Unknown
6:35 PM 46.4 °F - 32.0 °F 57% 30.27 in 10.0 mi Calm Calm - N/A   Unknown
6:55 PM 44.6 °F - 32.0 °F 61% 30.27 in 10.0 mi Calm Calm - N/A   Unknown
7:15 PM 42.8 °F - 32.0 °F 66% 30.28 in 10.0 mi Calm Calm - N/A   Unknown
7:35 PM 42.8 °F 38.0 °F 33.8 °F 70% 30.28 in 10.0 mi SSE 8.1 mph - N/A   Unknown
7:55 PM 41.0 °F 35.2 °F 33.8 °F 76% 30.28 in 10.0 mi SSE 9.2 mph - N/A   Unknown
8:15 PM 41.0 °F 35.2 °F 33.8 °F 76% 30.28 in 10.0 mi SSE 9.2 mph - N/A   Unknown
8:35 PM 41.0 °F 35.8 °F 32.0 °F 70% 30.28 in 10.0 mi SSE 8.1 mph - N/A   Unknown
8:55 PM 41.0 °F 35.8 °F 33.8 °F 76% 30.29 in 10.0 mi SSE 8.1 mph - N/A   Unknown
9:15 PM 41.0 °F 35.2 °F 33.8 °F 76% 30.29 in 10.0 mi SSE 9.2 mph - N/A   Unknown
9:35 PM 41.0 °F 34.7 °F 35.6 °F 81% 30.29 in 10.0 mi SSE 10.4 mph - N/A   Unknown
9:55 PM 41.0 °F - 33.8 °F 76% 30.29 in 10.0 mi Calm Calm - N/A   Unknown
10:15 PM 41.0 °F 38.0 °F 35.6 °F 81% 30.29 in 10.0 mi SSE 4.6 mph - N/A   Unknown
10:35 PM 39.2 °F - 33.8 °F 81% 30.29 in 10.0 mi Calm Calm - N/A   Unknown
10:55 PM 37.4 °F - 33.8 °F 87% 30.28 in 10.0 mi Calm Calm - N/A   Unknown
11:15 PM 37.4 °F - 33.8 °F 87% 30.28 in 10.0 mi Calm Calm - N/A   Unknown
11:35 PM 37.4 °F 31.4 °F 33.8 °F 87% 30.27 in 10.0 mi South 8.1 mph - N/A   Unknown
11:55 PM 37.4 °F - 33.8 °F 87% 30.27 in 10.0 mi Calm Calm - N/A   Unknown